Погода в Слуцке

Погода в Слуцке : погода сейчас, прогноз погоды и архив. Всё, что Вы хотите узнать о погоде в Слуцке!

Хотите узнать прогноз погоды в Слуцке? Тогда Вам сюда: Погода в Слуцке

Поиск расширенной информации на нашем сайте:

Другие новости

Новости СМИ2

Главная страница сайта

Новости сайта

03.07.2017

Напоминаем, что на нашем специализированном сайте Метеоцентр.Азия вы можете получить высокодетализированные автоматические прогнозы погоды по пунктам России, СНГ и мира в авиационном формате (включающие направление и скорость ветра, видимость, явления погоды, количество и форму облачности, нижнюю и верхнюю границу облачности).


Погода в Слуцке - сегодня

Время (UTC), дата Ветер
(°,м/с) 
Видим.   Явления Облачность Т
(°С)
Тd
(°С)
f(%) Тe
(°С)
Pmin
(гПа)
dP
(гПа)
Po
(мм)
O2
(г/м3)
Тmin Tmax R s Состояние
почвы
09 20.07.18 030 (СВ) 10 км    9/9 840 м 
[Sc]
+21.5 +17.8 79 +36  1005.6  0.6  740  272           
12 20.07.18 340 (С) 15000 м    9/9 300 м кучево-дожд. 
[Cb cap]
+23.8 +17.9 70 +38  1005.4  -0.1  740  270           
15 20.07.18 350 (С) 13000 м    5/5 300 м кучево-дожд. 
[Cb cap]
+25.7 +16.7 58 +38  1004.9  -0.4  740  269           
18 20.07.18 340 (С) 15000 м    9/3 600 м кучево-дожд., средняя, верхняя 
[Cb cap|Ac lent|Ci sp]
+21.9 +18.4 81 +37  1006.2  741  272    +26       
21 20.07.18 310 (СЗ) 12000 м    8/0 средняя 
[Ac trans]
+19.4 +18.1 92 +36  1006.4  0.1  741  274           
00 21.07.18 320 (СЗ) 11000 м    9/0 средняя 
[Ac lent]
+17.4 +15.7 90 +29  1006.5  -0.1  741  277           
03 21.07.18 340 (С) 10 км    9/0 средняя 
[Ac lent]
+18.2 +17.2 94 +33  1007.1  0.6  741  276           
06 21.07.18 360 (С) 11000 м    9/0 средняя 
[Ac trans]
+21 +18 83 +36  1007  0.2  741  273  +17.4         
09 21.07.18 340 (С) 12000 м    8/1 600 м верхняя 
[Cu hum|Ci sp]
+24.5 +19 71 +41  1007.8  0.9  742  270           
12 21.07.18 340 (С) 12000 м    9/3 600 м верхняя 
[Cu med, cong|Ci sp]
+24.6 +18.4 68 +40  1007.4  -0.4  742  270           
15 21.07.18 350 (С) 13000 м    9/5 600 м кучево-дожд., верхняя 
[Cb cap|Ci sp]
+24.7 +18.9 70 +41  1007.7  0.4  742  270           
18 21.07.18 тихо ()   10 км    9/0 средняя 
[Ac lent]
+22.3 +19.2 83 +40  1008.2  0.3  742  272    +26.2       
21 21.07.18 тихо ()   7000 м  дымка  5/0 средняя 
[Ac trans]
+19.1 +18 93 +34  1008.4  0.1  742  275           
00 22.07.18 тихо ()   5000 м  дымка  1/0 средняя 
[Ac trans]
+17.3 +16.8 97 +30  1008.4  -0.2  742  277           
03 22.07.18 360 (С) 4000 м  дымка  8/0 средняя, верхняя 
[Ac lent|Ci sp]
+16.7 +15.9 95 +29  1008.2  -0.3  742  278           
06 22.07.18 020 (С) 10 км    9/9 1000 м 
[Sc]
+19.8 +17.5 87 +35  1007.9  742  275  +16.7         
09 22.07.18 060 (СВ) 12000 м  слаб. ливневой дождь  10/6 300 м кучево-дожд., средняя 
[Cb cap|As trans]
+22.5 +18.5 78 +38  1008.5  0.7  742  272      0.1     
12 22.07.18 320 (СЗ) 10 км  в посл. час дождь{ливн. осадки}  10/0 средняя 
[As op]
+19.6 +18.7 95 +36  1007.7  -0.9  742  274         
15 22.07.18 360 (С) 12000 м  гроза без осадков  9/6 300 м кучево-дожд., средняя 
[Cb cap|Ac lent]
+23.3 +19.1 77 +40  1006.5  -1  741  271         
18 22.07.18 010 (С) 3{10}  13000 м  {гроза, ливн. осадки}  9/8 600 м кучево-дожд., средняя, верхняя 
[Cb cap|Ac trans|Ci sp]
+19.7 +18.6 93 +37  1007.4  0.7  742  274    +23.8     
21 22.07.18 020 (С) 10 км    9/4 600 м средняя 
[Sc|Ac trans]
+18.7 +18.2 97 +35  1007.4  -0.1  741  275           
00 23.07.18 040 (СВ) 8000 м  дымка  9/9 600 м 
[Sc]
+18.7 +18.2 97 +35  1007.1  -0.3  741  275           
03 23.07.18 030 (СВ) 5000 м  дымка{дождь}  10/10 210 м 
[St]
+19.2 +18.9 98 +37  1006.8  -0.2  741  274      0.1     
06 23.07.18 060 (СВ) 7000 м  дымка{ливн. осадки}  10/10 240 м 
[St]
+20.2 +19.2 94 +37  1006.8  741  273  +18.7    0.1     
09 23.07.18 040 (СВ) 12000 м    10/6 600 м кучево-дожд., средняя 
[Cb cap|As trans]
+22.4 +19 81 +39  1007.2  0.5  741  272           
Время (UTC), дата Ветер
(°,м/с) 
Видим.   Явления Облачность Т
(°С)
Тd
(°С)
f(%) Тe
(°С)
Pmin
(гПа)
dP
(гПа)
Po
(мм)
O2
(г/м3)
Тmin Tmax R s Состояние
почвы

Для получения пояснительной информации подведите курсор к названию столбца.

ПОГОДА в Слуцке - архив

Всё, что Вы хотите узнать о погоде в Слуцке - удобно и подробно!

Выберите нужную дату (начиная с 1 января 2015* года) и нажмите кнопку "Найти".
Будут отображены архивные сводки погоды по пункту Слуцк, начиная с указанной даты.


Отображать данные в формате CSV (для использования в таблицах Excel)


Внимание! Наш архив погоды предназначен исключительно для личного некоммерческого использования в познавательных целях. Если Вам необходимы официальные справки о состоянии погоды (для производственных, юридических, коммерческих и т.п. целей), обращайтесь в органы Росгидромета.

*Примечание: данная дата относится к архиву по метеостанциям СССР (Россия, СНГ, Балтия).
Архив по метеостанциям Зарубежной Европы и Азии (кроме Китая) хранится 10 дней, по другим регионам земного шара (Китай, Африка, Америка, Австралия, Океания) - 1 день.

Слуцк - район местоположения метеостанции


Название, широта, долгота, высота метеостанции:
Слуцк 53°ш. 27.6°д. 162 м над ур. моря [Беларусь]

Дополнительная информация

В oтличие oт бoльшинства пoгoдных сайтoв мы публикуем пoдрoбную метеoинфoрмацию в детальнoм прoфессиoнальнoм фoрмате.

Характеристики температуры и влажнoсти вoздуха измеряются на высoте 2 м в тени вдали oт зданий и деревьев.
Скoрoсть ветра измеряется на высoте 10 м (на урoвне рoста челoвека скoрoсть ветра ниже в 1.5-2 раза). Если метеoстанция нахoдится в гoрoде или в лесу, тo скoрoсть ветра занижена на 2-4 м/с пo сравнению с oткрытым местoм. Скoрoсть ветра над акватoриями крупных рек и oзёр, а также на вершинах хoлмoв на 2-5 м/с выше, чем в oбычных услoвиях.
Атмoсфернoе давление в разных тoчках местнoсти мoжет значительнo oтличаться oт давления на метеoстанции, в зависимoсти oт услoвий рельефа (при пoдъёме на 10 м давление пoнижается примернo на 1 мм рт.ст.).